This demonstration page uses our WeatherBlox Daily Observations layout. Learn more.

Left ArrowRight Arrow

39.51506, -84.39828

Hourly Observations for September 10, 2016

Temp ( °F °C ) Dew Point ( °F °C ) Humidity (%) Winds ( mph kmh ) Pressure ( in mb ) Visibility ( mi km ) Precip ( " mm )
12:15 am 00:15 Mostly Cloudy with Heavy Rain 80 26.5 71 21.8 75 75 S 7 11 29.91 1013 7 11 N/A
12:35 am 00:35 Partly Cloudy 77 25.1 70 20.9 78 78 S 8 13 29.91 1013 10 16 N/A
12:55 am 00:55 Partly Cloudy 77 25.1 70 21.1 79 79 SW 3 6 29.91 1013 10 16 N/A
1:15 am 01:15 Mostly Cloudy 77 25.1 71 21.6 81 81 SSW 3 6 29.91 1013 10 16 N/A
1:35 am 01:35 Partly Cloudy 77 25.1 70 21.2 79 79 S 7 11 29.91 1013 10 16 N/A
1:55 am 01:55 Clear 77 25.1 70 21 78 78 S 7 11 29.91 1013 10 16 N/A
2:15 am 02:15 Partly Cloudy 77 25.1 70 21 78 78 S 8 13 29.88 1012 10 16 N/A
2:35 am 02:35 Mostly Cloudy 77 25.1 70 20.9 78 78 S 7 11 29.88 1012 10 16 N/A
2:55 am 02:55 Partly Cloudy 77 25.1 70 20.9 78 78 SSW 7 11 29.91 1013 10 16 N/A
3:15 am 03:15 Partly Cloudy 77 25.1 71 21.5 81 81 N N/A 29.88 1012 10 16 N/A
3:35 am 03:35 Partly Cloudy 77 25.1 70 21 78 78 N N/A 29.88 1012 10 16 N/A
3:55 am 03:55 Partly Cloudy 77 25.1 69 20.6 76 76 S 5 7 29.88 1012 10 16 N/A
4:15 am 04:15 Clear 77 25.1 69 20.7 77 77 S 5 7 29.88 1012 10 16 N/A
4:35 am 04:35 Clear 74 23.6 68 20 80 80 N N/A 29.88 1012 10 16 N/A
4:55 am 04:55 Clear 74 23.6 68 20 80 80 S 6 9 29.88 1012 10 16 N/A
5:15 am 05:15 Partly Cloudy 77 25.1 69 20.5 76 76 SSW 7 11 29.88 1012 10 16 N/A
5:35 am 05:35 Mostly Cloudy 77 25.1 69 20.5 76 76 SSW 8 13 29.88 1012 10 16 N/A
5:55 am 05:55 Partly Cloudy 77 25.1 67 19.7 72 72 SSW 10 17 29.88 1012 10 16 N/A
6:15 am 06:15 Clear 77 25.1 68 19.9 73 73 SSW 9 15 29.88 1012 10 16 N/A
6:35 am 06:35 Clear 77 25.1 68 20 73 73 SSW 9 15 29.88 1012 10 16 N/A
6:55 am 06:55 Clear 77 25.1 68 19.9 73 73 SSW 10 17 29.88 1012 10 16 N/A
7:15 am 07:15 Sunny 76 24.3 66 19.1 73 73 SSW 9 15 29.91 1013 10 16 N/A
7:35 am 07:35 Partly Cloudy 74 23.6 66 19 75 75 SSW 8 13 29.91 1013 10 16 N/A
7:55 am 07:55 Partly Cloudy 77 24.9 68 19.9 74 74 SSW 10 17 29.91 1013 10 16 N/A
8:15 am 08:15 Sunny 77 25.1 68 20 73 73 SSW 10 17 29.91 1013 10 16 N/A
8:35 am 08:35 Partly Cloudy 77 25.1 68 19.8 73 73 SSW 8 13 29.91 1013 10 16 N/A
8:55 am 08:55 Partly Cloudy 77 25.1 67 19.3 70 70 S 9 15 29.91 1013 10 16 N/A
9:15 am 09:15 Mostly Cloudy 77 25.1 67 19.3 70 70 SSW 13 20 29.91 1013 10 16 N/A
9:35 am 09:35 Mostly Cloudy 80 26.5 68 19.8 67 67 S 12 19 29.91 1013 10 16 N/A
9:55 am 09:55 Mostly Cloudy 80 26.5 67 19.6 66 66 SSW 8 13 29.91 1013 10 16 N/A
10:15 am 10:15 Mostly Cloudy 80 26.9 68 20.2 67 67 S 12 19 29.91 1013 10 16 N/A
10:35 am 10:35 Partly Cloudy 81 27.2 68 20.2 66 66 SSW 16 26 29.91 1013 10 16 N/A
10:55 am 10:55 Partly Cloudy 82 28 69 20.6 64 64 SSW 16 26 29.85 1011 10 16 N/A
11:15 am 11:15 Mostly Cloudy 82 28 69 20.3 63 63 SSW 17 28 29.85 1011 10 16 N/A
11:35 am 11:35 Mostly Cloudy 83 28.6 69 20.5 62 62 SSW 16 26 29.85 1011 10 16 N/A
11:55 am 11:55 Partly Cloudy 84 28.8 69 20.5 61 61 SSW 16 26 29.85 1011 10 16 N/A
12:15 pm 12:15 Partly Cloudy 86 30.1 70 21.3 59 59 S 16 26 29.85 1011 10 16 N/A
12:35 pm 12:35 Mostly Cloudy 83 28.6 68 19.9 59 59 S 14 22 29.85 1011 10 16 N/A
12:55 pm 12:55 Cloudy 87 30.7 71 21.4 58 58 S 18 30 29.85 1011 10 16 N/A
1:15 pm 13:15 Mostly Cloudy 88 31.2 71 21.8 57 57 SSW 18 30 29.85 1011 10 16 N/A
1:35 pm 13:35 Mostly Cloudy 89 31.5 72 22.1 57 57 SSW 16 26 29.83 1010 10 16 N/A
1:55 pm 13:55 Mostly Cloudy 90 32.1 72 22.3 56 56 S 17 28 29.83 1010 10 16 N/A
2:15 pm 14:15 Mostly Cloudy 89 31.9 71 21.6 54 54 SSW 14 22 29.83 1010 10 16 N/A
2:35 pm 14:35 Mostly Cloudy 90 32.1 70 21.1 52 52 SSW 20 31 29.80 1009 10 16 N/A
2:55 pm 14:55 Partly Cloudy 90 32.1 70 21 52 52 SSW 17 28 29.80 1009 10 16 N/A
3:15 pm 15:15 Mostly Cloudy 87 30.7 70 21.1 57 57 SSW 15 24 29.80 1009 10 16 N/A
3:35 pm 15:35 Cloudy with Heavy Rain 76 24.3 68 20.2 78 78 WSW 24 39 29.83 1010 1 2 N/A
3:55 pm 15:55 undefined N/A N/A N/A undefined N/A N/A N/A N/A
4:15 pm 16:15 undefined N/A N/A N/A undefined N/A N/A N/A N/A
4:35 pm 16:35 undefined N/A N/A N/A undefined N/A N/A N/A N/A
4:55 pm 16:55 undefined N/A N/A N/A undefined N/A N/A N/A N/A
5:15 pm 17:15 undefined N/A N/A N/A undefined N/A N/A N/A N/A
5:35 pm 17:35 undefined N/A N/A N/A undefined N/A N/A N/A N/A
5:55 pm 17:55 undefined N/A N/A N/A undefined N/A N/A N/A N/A
6:15 pm 18:15 undefined N/A N/A N/A undefined N/A N/A N/A N/A
6:35 pm 18:35 undefined N/A N/A N/A undefined N/A N/A N/A N/A
6:55 pm 18:55 undefined N/A N/A N/A undefined N/A N/A N/A N/A
7:15 pm 19:15 undefined N/A N/A N/A undefined N/A N/A N/A N/A
7:35 pm 19:35 undefined N/A N/A N/A undefined N/A N/A N/A N/A
7:55 pm 19:55 undefined N/A N/A N/A undefined N/A N/A N/A N/A
8:15 pm 20:15 undefined N/A N/A N/A undefined N/A N/A N/A N/A
8:35 pm 20:35 undefined N/A N/A N/A undefined N/A N/A N/A N/A
8:55 pm 20:55 undefined N/A N/A N/A undefined N/A N/A N/A N/A
9:15 pm 21:15 undefined N/A N/A N/A undefined N/A N/A N/A N/A
9:35 pm 21:35 undefined N/A N/A N/A undefined N/A N/A N/A N/A
9:55 pm 21:55 undefined N/A N/A N/A undefined N/A N/A N/A N/A
10:15 pm 22:15 undefined N/A N/A N/A undefined N/A N/A N/A N/A
10:35 pm 22:35 undefined N/A N/A N/A undefined N/A N/A N/A N/A
10:55 pm 22:55 undefined N/A N/A N/A undefined N/A N/A N/A N/A
11:15 pm 23:15 undefined N/A N/A N/A undefined N/A N/A N/A N/A
11:35 pm 23:35 undefined N/A N/A N/A undefined N/A N/A N/A N/A
11:55 pm 23:55 undefined N/A N/A N/A undefined N/A N/A N/A N/A

Powered by AerisWeather